Theta_e
297 297 297 296 296 296 299 302 301 307 305 306 308 310 313 316 318 317 317 320 322 321 322 323 325 326 324 327 334 345 352 351 352 357 355 356 357 358 360 360 360 360 359 358
294 295 295 295 297 298 298 301 305 307 301 309 311 311 311 312 314 316 316 317 318 320 323 323 324 326 327 326 326 332 341 349 354 355 357 357 358 359 360 359 360 360 360 358
293 294 294 291 297 298 300 303 307 304 307 309 309 310 311 312 312 312 313 314 315 316 317 321 324 327 328 329 327 328 329 336 342 348 351 354 356 357 357 358 359 359 359 359
296 293 286 297 303 302 301 303 308 309 309 311 311 312 312 313 311 311 311 312 314 314 315 316 319 324 328 330 329 326 326 326 331 338 338 344 353 356 358 357 357 358 358 359
291 290 293 295 300 300 300 300 306 308 309 310 310 311 310 311 310 310 311 312 313 315 314 316 317 318 321 327 330 328 327 325 326 329 330 333 339 346 347 357 357 358 357 358
293 289 286 297 302 306 305 296 307 308 308 307 307 303 309 309 308 308 309 310 310 311 312 314 316 317 317 319 325 328 329 328 326 326 328 328 331 335 342 345 352 353 354 357
293 291 295 301 304 306 292 299 308 308 307 305 304 305 305 306 306 307 308 308 309 310 310 312 314 315 315 317 319 325 328 330 330 327 326 328 332 334 333 338 345 347 349 355
295 291 289 304 302 297 305 308 307 306 304 303 303 303 304 305 305 306 307 308 308 308 310 311 313 313 314 315 319 322 323 327 330 330 327 326 330 331 332 334 336 347 344 344
297 298 302 305 304 307 307 306 304 304 303 303 303 304 305 305 306 306 307 308 308 308 309 311 312 313 312 316 317 317 318 321 327 330 329 329 327 326 330 334 334 336 343 343
296 300 301 304 305 306 304 304 304 304 304 304 303 304 304 305 305 306 307 307 308 308 308 309 311 312 313 314 315 315 316 319 323 325 327 328 326 324 321 323 329 334 335 340
298 301 301 304 305 306 305 304 303 304 304 303 303 304 304 304 305 306 307 307 307 307 307 308 311 311 312 313 314 313 314 316 320 322 325 326 326 323 320 322 320 325 328 335
297 301 302 301 306 307 305 304 304 304 303 304 305 304 305 305 307 306 307 307 306 306 306 307 308 309 312 314 313 313 312 314 316 319 321 322 323 323 311 309 308 305 303 312
301 304 304 306 305 306 305 305 305 305 305 303 304 305 306 305 306 306 306 307 306 303 304 304 304 306 311 313 314 312 312 314 316 315 318 320 321 321 320 319 307 305 304 304
305 305 302 304 302 305 305 305 304 305 305 305 305 306 306 305 306 305 302 303 302 304 305 304 305 305 310 313 314 312 313 308 313 316 316 318 320 321 321 321 319 323 314 310
305 305 306 306 306 305 306 306 305 304 305 305 306 305 306 305 304 303 302 302 301 301 301 303 302 307 311 311 310 310 312 312 313 315 317 316 319 319 319 321 322 325 324 318
304 306 305 304 305 306 306 305 304 304 305 306 305 305 306 305 303 301 301 302 299 301 300 301 301 302 306 308 309 310 310 310 311 313 313 316 317 318 319 321 322 323 323 322
303 302 303 303 304 305 305 307 307 307 307 305 305 305 304 302 301 300 300 302 301 301 301 301 301 303 304 303 303 304 307 309 311 311 313 315 316 317 319 319 320 320 321 319
308 305 306 305 305 305 306 307 308 307 306 307 306 305 303 301 301 299 300 301 300 301 303 302 304 304 305 302 302 302 303 305 308 311 314 315 316 316 315 317 317 316 318 318
307 306 307 307 308 308 307 307 307 308 308 308 305 303 303 302 302 299 299 301 298 297 301 305 303 303 302 303 303 303 304 304 306 309 311 311 312 311 311 312 314 315 313 312
306 308 308 307 308 307 306 308 308 308 308 306 305 303 303 303 301 301 299 298 299 301 303 303 301 300 300 301 302 300 302 302 302 304 307 309 311 308 308 304 306 308 307 306
305 306 305 306 306 307 308 308 308 307 307 306 304 304 303 304 305 302 300 297 302 304 302 302 301 300 299 300 299 298 298 298 298 299 300 302 303 304 305 305 303 302 302 300
303 303 304 305 305 305 307 309 308 308 306 305 304 305 303 302 304 302 301 299 303 299 301 300 301 300 299 298 295 295 295 295 294 295 295 296 297 298 299 299 298 297 297 296
301 302 302 302 303 304 307 307 307 306 305 304 305 305 305 305 305 303 301 302 302 302 302 300 298 298 297 296 294 293 293 293 293 293 293 293 294 294 294 294 294 294 295 294
302 303 303 304 304 304 303 306 305 306 306 307 306 307 307 306 307 309 308 303 301 302 302 301 300 298 297 300 297 294 293 291 291 291 292 292 292 292 292 292 292 292 293 292
303 303 303 303 303 304 305 305 305 306 307 306 307 308 308 308 307 308 308 307 302 301 304 299 298 299 300 301 299 296 295 293 291 290 289 289 290 290 291 291 290 291 291 291
303 303 304 304 302 304 303 304 306 308 307 306 306 306 306 307 304 304 306 306 306 302 302 301 301 301 300 301 299 298 297 294 294 292 290 289 288 289 289 289 289 290 289 290
303 300 304 305 302 301 304 306 306 304 303 304 302 305 304 303 304 303 301 307 305 305 305 303 305 302 301 301 300 299 298 297 294 295 293 290 289 289 289 288 288 289 290 289
Wind_Speed
4 4 2 1 3 3 7 5 10 17 18 12 11 10 9 7 10 11 12 14 15 15 15 15 14 9 8 11 12 12 7 7 8 9 9 12 11 12 13 13 13 13 13 14
4 1 3 7 5 7 5 4 4 20 10 12 10 11 10 10 8 10 12 13 13 14 15 14 15 14 13 11 11 10 10 8 7 7 6 9 10 11 12 14 14 13 14 15
8 2 4 9 13 11 7 5 7 12 13 12 13 10 9 8 9 9 10 11 12 13 13 14 13 13 14 12 12 10 10 9 8 8 7 8 9 10 12 13 13 14 15 15
4 7 10 8 3 3 8 6 3 15 17 15 11 9 8 7 7 8 9 10 10 10 12 13 14 13 13 12 11 11 10 10 11 10 7 8 9 9 10 11 12 13 14 15
6 11 5 7 8 11 14 10 7 12 13 11 9 9 10 6 5 6 7 8 8 9 11 11 11 13 13 12 11 10 12 11 12 11 9 6 8 9 9 10 10 10 13 15
6 7 7 10 12 4 2 10 13 12 12 11 8 9 9 4 4 6 7 8 9 11 10 10 11 12 12 12 11 11 11 11 8 11 10 11 6 7 9 9 11 11 12 15
9 8 1 6 9 8 9 7 15 10 8 6 5 9 6 5 6 6 7 8 9 9 10 10 10 11 11 11 11 11 12 12 11 8 8 7 8 7 8 7 8 6 10 14
8 6 12 11 10 9 8 11 10 7 6 5 4 3 3 3 4 6 8 8 9 9 10 11 11 11 12 11 11 12 13 13 11 11 9 8 10 8 7 6 8 10 10 10
5 2 5 10 3 6 5 8 5 5 5 3 1 1 3 5 6 7 9 9 9 10 11 11 10 10 13 12 12 13 14 14 13 11 10 10 8 12 8 6 6 7 10 8
2 8 6 11 7 7 5 5 6 5 6 5 3 3 5 6 7 8 9 10 11 13 14 13 11 12 13 14 14 14 15 15 13 12 11 11 9 7 8 9 5 5 7 10
8 4 4 9 13 11 7 5 6 6 6 5 4 5 6 8 9 9 9 10 10 12 14 15 14 14 14 14 14 15 15 14 14 12 12 10 10 8 7 9 10 8 6 9
5 3 9 2 14 12 11 10 9 9 8 7 7 7 7 9 9 10 11 12 11 12 14 16 17 18 18 16 15 15 15 13 12 10 10 10 10 11 11 14 16 15 15 11
5 2 4 5 5 7 9 9 9 10 8 6 5 7 8 9 9 10 13 13 14 14 15 15 17 17 18 18 16 16 16 16 12 10 12 11 10 10 12 7 11 13 16 15
3 3 6 7 6 8 7 7 6 6 6 7 6 7 8 8 9 11 11 13 15 15 16 16 17 19 19 19 18 17 17 16 14 11 12 12 10 10 10 10 11 11 10 9
5 7 8 3 7 7 8 8 9 9 8 8 7 7 7 9 9 10 10 11 12 14 14 13 15 18 13 13 14 15 15 13 13 11 12 11 11 11 11 11 11 11 8 9
11 12 12 9 9 9 10 11 11 10 9 8 7 6 7 7 9 9 12 10 11 12 13 13 13 14 13 12 13 12 12 18 13 11 12 13 11 11 10 11 11 11 10 7
9 11 13 13 12 13 14 13 12 11 8 7 6 4 5 6 6 6 9 10 10 11 11 10 12 12 10 10 11 8 9 11 11 12 13 12 12 10 9 9 9 10 10 6
8 2 4 10 14 12 12 12 11 12 8 6 3 4 5 6 7 5 8 9 8 10 9 8 13 12 12 11 11 8 10 11 11 13 12 11 10 7 9 9 9 9 9 8
10 11 13 12 11 10 10 8 9 9 7 7 6 5 3 5 2 5 5 10 6 10 13 12 15 15 13 14 12 9 11 11 13 12 11 10 7 8 9 8 9 8 8 7
8 10 10 8 7 9 8 7 8 9 9 8 6 5 3 3 5 4 5 9 8 7 13 11 12 11 13 14 14 9 12 12 11 11 11 11 9 6 8 7 7 8 6 5
6 7 7 7 8 8 8 8 9 11 10 9 8 6 4 3 3 5 6 6 6 6 10 9 9 7 8 11 11 8 9 9 10 9 9 9 9 8 8 7 6 5 5 4
7 8 8 9 11 11 9 8 10 10 11 9 8 7 6 6 6 4 5 7 4 5 6 6 8 13 10 13 8 8 8 7 6 6 6 6 6 7 6 5 4 3 3 2
8 8 9 9 9 10 9 8 10 11 11 13 12 9 8 5 4 5 5 5 2 4 5 4 7 12 13 6 7 7 7 8 6 4 4 4 4 3 3 2 1 1 1 1
8 8 9 9 10 9 9 8 9 8 11 12 10 8 7 6 5 5 2 6 6 7 4 5 6 8 8 7 6 5 5 6 6 6 6 4 2 3 3 2 3 3 4 4
8 8 9 7 7 4 4 6 9 10 11 9 7 5 8 6 5 4 5 5 10 8 2 2 5 8 3 5 6 6 6 4 5 5 6 6 5 6 5 5 6 5 5 5
7 5 4 5 5 3 3 5 6 7 6 4 5 8 6 1 4 5 5 8 5 4 4 1 4 4 4 6 8 9 6 6 5 6 6 6 6 6 6 6 7 7 6 6
5 3 4 3 5 2 1 5 6 5 6 4 2 1 3 4 3 4 2 4 5 3 2 5 1 4 5 6 5 7 8 7 3 4 6 6 6 5 5 5 6 6 6 7
Wind_Direction
65 66 27 318 229 221 256 315 274 122 129 142 130 118 102 76 84 70 50 43 45 45 43 36 30 29 4 6 3 343 296 275 248 214 206 244 228 232 229 225 223 223 221 223
171 307 265 249 226 222 211 204 188 107 111 134 125 134 119 98 80 64 49 40 34 31 29 35 29 18 23 14 2 356 358 336 306 299 282 229 247 238 238 234 228 227 226 225
210 215 223 236 210 204 164 217 199 178 139 158 149 136 113 96 75 60 44 30 22 19 19 13 18 22 11 24 20 3 358 357 345 357 331 279 262 250 245 241 241 234 231 230
134 191 224 69 71 196 186 165 141 104 144 162 147 133 122 82 59 43 29 16 9 4 4 1 0 8 359 360 20 9 14 3 358 347 352 345 321 273 255 251 246 242 240 237
220 215 91 170 191 174 173 169 176 144 149 152 157 164 144 115 45 21 6 356 351 354 348 341 348 354 349 344 351 358 2 357 351 352 335 354 329 314 330 277 253 251 246 240
192 253 237 81 153 177 159 205 183 167 162 162 177 209 106 97 32 2 352 348 340 335 323 331 338 340 340 331 336 338 345 345 345 329 332 352 325 309 305 302 275 260 256 249
220 246 144 105 146 176 209 82 150 173 151 164 217 37 77 29 19 359 345 337 338 326 323 328 327 325 316 317 320 332 329 324 331 338 323 315 307 295 289 293 269 275 258 256
243 250 239 134 155 211 70 118 134 139 138 133 104 100 60 24 349 336 338 335 334 324 324 321 318 311 305 302 313 318 314 310 308 312 316 312 314 299 289 297 279 269 262 271
238 53 113 169 357 115 128 128 136 149 138 140 166 342 348 327 326 325 323 326 324 322 316 309 313 309 300 302 307 304 300 297 297 296 297 301 301 303 298 280 289 273 273 250
259 188 185 176 162 165 169 157 165 176 168 183 240 286 305 309 318 316 314 317 320 316 311 308 309 304 296 294 295 292 289 287 283 284 284 284 289 279 285 290 287 289 275 274
237 201 200 194 189 181 180 172 175 178 197 223 261 281 305 311 314 312 309 307 318 314 308 304 304 301 295 291 287 283 280 281 281 278 278 283 269 281 279 273 288 291 271 292
237 255 212 200 195 190 190 197 201 204 204 221 245 280 303 306 314 316 315 315 310 313 312 313 310 302 298 291 282 276 275 267 264 278 284 278 286 287 215 236 255 264 259 238
272 225 188 137 154 172 198 203 198 209 220 240 251 280 296 304 306 324 301 318 320 314 310 304 298 291 287 283 274 268 266 269 270 261 265 271 279 284 292 271 233 246 264 263
270 181 187 190 193 186 199 188 167 221 229 239 264 280 283 298 311 322 320 320 308 309 308 308 306 300 286 273 269 262 261 259 265 264 268 265 268 275 279 289 295 294 251 244
219 244 296 229 201 189 196 192 200 212 225 241 245 263 284 296 318 320 312 314 310 304 307 313 319 311 309 289 277 273 268 257 255 259 263 272 282 277 272 275 271 278 283 301
254 272 230 221 201 205 208 213 226 230 229 236 249 268 298 334 316 319 314 315 304 306 304 308 317 318 329 311 299 286 269 261 275 272 267 267 261 262 263 268 278 285 291 292
231 205 210 222 224 225 221 232 234 236 230 232 256 299 322 305 288 292 312 311 296 298 300 299 307 309 312 310 301 290 290 280 247 249 257 259 259 264 272 270 273 280 286 305
231 264 241 265 257 220 223 226 237 230 208 219 216 255 273 278 287 300 309 310 299 302 308 305 296 296 301 300 288 281 277 275 267 256 257 256 253 263 267 263 265 272 288 303
240 244 250 244 247 255 260 260 232 218 196 185 207 229 290 286 269 271 291 281 333 316 320 329 314 309 313 304 299 288 280 274 275 273 268 264 258 260 269 268 280 277 281 291
260 246 264 257 257 253 257 236 222 202 188 180 182 194 189 175 218 286 275 280 282 276 303 336 331 321 315 302 317 303 285 282 283 289 290 297 286 262 269 264 270 277 277 284
278 283 259 246 253 254 253 243 219 204 184 183 192 186 160 161 189 262 248 263 298 269 304 344 341 326 324 326 326 317 310 303 292 286 283 285 289 281 270 272 273 275 277 271
318 307 293 277 267 254 235 222 211 196 181 184 204 191 218 233 245 252 253 275 302 287 311 8 6 3 355 359 339 331 320 301 296 294 289 289 284 282 277 277 273 258 254 249
315 305 295 288 281 268 253 226 182 181 187 206 211 220 234 241 233 262 268 208 269 262 292 32 26 20 16 8 3 352 342 338 332 317 319 307 300 292 293 301 307 279 186 162
309 292 288 288 279 264 242 204 190 224 213 209 214 231 245 254 254 252 219 178 218 245 327 7 20 3 5 1 16 2 359 354 351 359 356 13 22 44 53 63 68 69 83 86
308 301 295 298 299 286 205 160 204 205 199 199 211 237 262 246 257 271 228 184 180 218 192 275 255 275 31 28 27 23 12 32 24 15 6 0 25 45 44 57 56 56 63 52
348 345 359 26 41 31 129 222 196 178 175 181 210 222 230 310 288 273 249 190 161 180 239 151 315 341 28 35 20 23 29 23 25 40 31 17 14 30 41 44 48 50 46 47
51 321 29 80 116 244 206 141 116 130 188 191 145 66 354 341 332 259 312 104 149 240 214 175 251 340 355 36 43 13 14 38 58 57 60 39 28 15 32 43 51 45 64 59